PEGASUS DEB, 24126

Orbit data source: Space-Track

PEGASUS DEB, 24126 is space debris in LEO originally from a launch on Thu, 19 May 1994 UTC launched from the Air Force Western Test Range (AFWTR). Debris objects in space refer to the collection of defunct objects orbiting the Earth. Examples of debris include non-operational satellites, rocket bodies, and fragments generated from explosions, collisions, or faulty payload assembly.

Loading next visibility...
Identifier
24126, 1994-029FZ
Orbit
LEO
Country
Flag of USUS
Related business
Manufacturer
Unknown
Mission
Spacecraft
Bus & Motor
Unknown
Mass
Unknown
Launch date (UTC)
1994-05-19 (32 years ago)
Launch vehicle
Unknown
Launch site
Air Force Western Test Range (AFWTR)
Object type
Payload
Rocket body
Debris
Shape & HBR
Unknown shape, 0.1 m
Radar Cross Section
Medium (>0.1 m² and <1 m²)

Expand to show TLE details & history
Last TLE update: 18 hours ago

TLE from 18 hours ago
0 PEGASUS DEB
1 24126U 94029FZ  26177.88454792  .00010752  00000-0  20719-2 0  9995
2 24126  81.7997 333.6107 0270598 141.3190 338.8448 14.42597678555366
Epoch: 2026-06-26T21:13Z
TLE epoch observation values (Epoch: 2026-06-26T21:13:44.940Z)
Latitude
60.05257°
Longitude
-94.23724°
Altitude
580.916 km
Speed
7.671 km/s
True Right ascension
09h 16m 49s
True Declination
59° 53' 59"
Sunlit
Object was in daylight at epoch
Visualization orbit readout
Latitude
Unknown
Longitude
Unknown
Altitude
Unknown
Speed
Unknown
Apparent Right ascension
Unknown
Apparent Declination
Unknown
Sunlit
N/A
Visualization observer readout
Local Sidereal Time
02:17:40
Azimuth
Unknown
Elevation
Unknown
Doppler factor
Unknown
Orbital elements
Apogee altitude
939.836 km
Perigee altitude
554.224 km
Semi-major axis
7,125.167 km
Eccentricity
0.02706
Inclination
81.7997°
RAAN
333.6107°
Arg. of periapsis
141.319°
True anomaly
337.6894°
Mean anomaly
338.8448°
Eccentric anomaly
338.27081°
Mean motion
3.6087 °/min
Orbital period
99.76 mins
BSTAR
0.0020719
Loading maneuver chart data...
Computing Atmospheric mass density...

Documentation

Showing up to 5 results
|